Oroville, CA

11:49 PM PDT on May 26, 2017 (GMT -0700)
Oroville Municipal

Weather History for KOVE - January, 2014

Change the Weather History Date:

Tuesday, January 14, 2014

  Actual Average Record
Temperature  
Mean Temperature 54 °F -  
Max Temperature 75 °F 55 °F 75 °F (2014)
Min Temperature 34 °F 37 °F 24 °F (1963)
Degree Days  
Heating Degree Days 10    
Growing Degree Days 4 (Base 50)    
Moisture  
Dew Point 32 °F    
Average Humidity 57    
Maximum Humidity 89    
Minimum Humidity 16    
Precipitation  
Precipitation 0.00 in - - ()
Sea Level Pressure  
Sea Level Pressure 30.42 in    
Wind  
Wind Speed 4 mph (NNE)    
Max Wind Speed 12 mph    
Max Gust Speed 20 mph    
Visibility 9 miles    
Events      
Averages and records for this station are not official NWS values.
T = Trace of Precipitation, MM = Missing Value Source: NWS Daily Summary

Daily Weather History Graph

Daily Weather History Graph

Search for Another Location

Airport or City:

Trip Planner

Search our weather history database for the weather conditions in past years. The results will help you decide how hot, cold, wet, or windy it might be!

Date:

Astronomy

Jan. 14, 2014 Rise Set
Actual Time 7:25 AM PST 5:06 PM PST
Civil Twilight 6:55 AM PST 5:35 PM PST
Nautical Twilight 6:22 AM PST 6:08 PM PST
Astronomical Twilight 5:50 AM PST 6:41 PM PST
Moon 4:15 PM PST (1/14) 6:03 AM PST (1/14)
Length of Visible Light 10h 39m
Length of Day
9h 40m
Waxing Gibbous, 98% of the Moon is Illuminated
Jan 14
Waxing Gibbous
Jan 15
Full
Jan 23
Last Quarter
Jan 30
New
Feb 6
First Quarter

Hourly Weather History & Observations

Time (PST) Temp. Windchill Dew Point Humidity Pressure Visibility Wind Dir Wind Speed Gust Speed Precip Events Conditions
12:53 AM 37.9 °F 35.5 °F 34.0 °F 86% 30.43 in 6.0 mi ESE 3.5 mph - N/A   Clear
1:53 AM 37.0 °F 34.5 °F 33.1 °F 86% 30.43 in 7.0 mi South 3.5 mph - N/A   Clear
2:53 AM 35.1 °F 31.0 °F 30.9 °F 85% 30.45 in 9.0 mi SE 4.6 mph - N/A   Clear
3:53 AM 37.9 °F - 33.1 °F 83% 30.44 in 9.0 mi Calm Calm - N/A   Clear
4:53 AM 36.0 °F - 32.0 °F 86% 30.45 in 9.0 mi Calm Calm - N/A   Clear
5:53 AM 36.0 °F - 32.0 °F 86% 30.46 in 9.0 mi Calm Calm - N/A   Clear
6:53 AM 35.1 °F 32.2 °F 30.9 °F 85% 30.46 in 8.0 mi ESE 3.5 mph - N/A   Clear
7:53 AM 34.0 °F - 30.9 °F 89% 30.48 in 7.0 mi Calm Calm - N/A   Clear
8:53 AM 41.0 °F 39.0 °F 34.0 °F 76% 30.49 in 9.0 mi West 3.5 mph - N/A   Clear
9:53 AM 48.0 °F - 36.0 °F 63% 30.50 in 10.0 mi Calm Calm - N/A   Clear
10:53 AM 55.0 °F - 35.1 °F 47% 30.49 in 10.0 mi SSE 3.5 mph - N/A   Clear
11:53 AM 60.1 °F - 36.0 °F 41% 30.47 in 10.0 mi Calm Calm - N/A   Clear
12:53 PM 70.0 °F - 32.0 °F 25% 30.42 in 10.0 mi NW 6.9 mph - N/A   Clear
1:53 PM 75.0 °F - 27.0 °F 17% 30.39 in 10.0 mi NW 10.4 mph 16.1 mph N/A   Clear
2:53 PM 75.9 °F - 27.0 °F 16% 30.37 in 10.0 mi NW 11.5 mph 19.6 mph N/A   Clear
3:53 PM 73.9 °F - 28.0 °F 18% 30.37 in 10.0 mi NW 9.2 mph - N/A   Clear
4:53 PM 69.1 °F - 26.1 °F 20% 30.36 in 10.0 mi NW 9.2 mph - N/A   Clear
5:53 PM 64.9 °F - 24.1 °F 21% 30.36 in 10.0 mi North 5.8 mph - N/A   Clear
6:53 PM 55.0 °F - 34.0 °F 45% 30.38 in 10.0 mi SE 5.8 mph - N/A   Clear
7:53 PM 53.1 °F - 33.1 °F 47% 30.38 in 10.0 mi ESE 4.6 mph - N/A   Clear
8:53 PM 50.0 °F - 33.1 °F 52% 30.38 in 10.0 mi East 3.5 mph - N/A   Clear
9:53 PM 46.9 °F - 33.1 °F 59% 30.39 in 10.0 mi NNW 3.5 mph - N/A   Clear
10:53 PM 46.9 °F - 33.1 °F 59% 30.37 in 10.0 mi Calm Calm - N/A   Clear
11:53 PM 41.0 °F 38.0 °F 32.0 °F 70% 30.37 in 10.0 mi NW 4.6 mph - N/A   Clear